[Iaude] MPEC Y34: 2023 YF [a=0.87,e=0.21,i=12.9,H=25.6]

mpec at marsden.cfa.harvard.edu mpec at marsden.cfa.harvard.edu
Sun Dec 17 19:18:09 EST 2023


M.P.E.C. 2023-Y34                             Issued 2023 December 18, 00:16 UT

     The Minor Planet Electronic Circulars contain information on unusual
         minor planets, routine data on comets and natural satellites,
         and occasional editorial announcements.  They are published
    on behalf of Division F of the International Astronomical Union by the
          Minor Planet Center, Smithsonian Astrophysical Observatory,
                          Cambridge, MA 02138, U.S.A.
			  
             Prepared using the Tamkin Foundation Computer Network

                              MPC at CFA.HARVARD.EDU
            URL https://www.minorplanetcenter.net/    ISSN 1523-6714

                                    2023 YF                                     


Observations:
     K23Y00F* C2023 12 16.42372107 28 18.687+31 30 01.31         21.21wXEY034F52
     K23Y00F  C2023 12 16.43551507 28 09.721+31 28 31.05         21.28wXEY034F52
     K23Y00F  C2023 12 16.44726507 28 00.612+31 26 59.52         21.04wXEY034F52
     K23Y00F  C2023 12 16.45895707 27 51.650+31 25 29.46         21.04GVEY034F52
     K23Y00F  C2023 12 16.56430907 26 30.192+31 11 32.71               VEY034F52
     K23Y00F IC2023 12 17.05415107 20 40.87 +30 04 20.2          21.0 GVEY034L01
     K23Y00F pC2023 12 17.05678307 20 38.83 +30 03 58.2          20.5 GVEY034L01
     K23Y00F pC2023 12 17.06467507 20 32.84 +30 02 51.1          20.3 GVEY034L01
     K23Y00F KC2023 12 17.06665307 20 31.33 +30 02 34.8          20.5 GVEY034L01
     K23Y00F  C2023 12 17.42452507 16 19.829+29 13 19.04               VEY034F52
     K23Y00F  C2023 12 17.49543507 15 18.557+29 02 33.62         20.6 GVEY034H01
     K23Y00F  C2023 12 17.49905007 15 15.848+29 02 01.84         21.0 GVEY034H01
     K23Y00F  C2023 12 17.50922107 15 08.200+29 00 32.21         20.9 GVEY034H01
     K23Y00F  C2023 12 17.51612107 15 03.025+28 59 31.32         20.8 GVEY034H01
     K23Y00F KC2023 12 17.97502 07 09 42.32 +27 52 57.3                VEY034104
     K23Y00F KC2023 12 17.97553 07 09 41.89 +27 52 54.3          20.3 GVEY034104

Observer details:
104 San Marcello Pistoiese.  Observers P. Bacci, M. Maestripieri.  Measurer P.
    Bacci.  0.60-m f/4.0 reflector + CCD.
F52 Pan-STARRS 2, Haleakala.  Observers J. Herman, T. Lowe, P. Minguez, A.
    Schultz, I. Smith.  Measurers K. Chambers, T. de Boer, J. Fairlamb, H.
    Gao, M. Huber, C.-C. Lin, E. Magnier, Y. Ramanjooloo, R. Wainscoat, R.
    Weryk.  1.8-m Ritchey-Chretien + CCD.
H01 Magdalena Ridge Observatory, Socorro.  Observers W. H. Ryan, E. V. Ryan.
    Measurer W. H. Ryan.  2.4-m f/8.9 Ritchey-Chretien + CCD.
L01 Visnjan Observatory, Tican.  Observer K. Korlevic.  1.0-m f/2.9 reflector
    + CCD.

Orbital elements:
2023 YF                                                  Earth MOID = 0.0627 AU
Epoch 2023 Sept. 13.0 TT = JDT 2460200.5                MPC                     
M  56.85150              (2000.0)            P               Q                  
n   1.21966148     Peri.    2.53264     +0.01163813     +0.97481460             
a   0.8675806      Node   268.19782     -0.92129205     -0.07612613             
e   0.2080359      Incl.   12.87491     -0.38869720     +0.20962184             
P   0.81           H   25.67          G   0.15           U   7                  
Residuals in seconds of arc
231216 F52  0.9-  0.3-    231217 L01  0.1-  0.5+    231217 H01  0.0   0.0
231216 F52  0.1+  0.2+    231217 L01  0.2+  0.8-    231217 H01  0.0   0.0
231216 F52  0.8-  0.5-    231217 L01  0.2+  0.6-    231217 104 (0.5+  1.3-)
231216 F52  0.2-  0.3+    231217 F52  0.0   0.1-    231217 104  0.1-  0.1+
231216 F52  0.7+  0.6+    231217 H01  0.2-  0.0
231217 L01  0.4+  0.6+    231217 H01  0.0   0.0

Ephemeris:
2023 YF                  a,e,i = 0.87, 0.21, 13                  q = 0.6871
Date    TT    R. A. (2000) Decl.     Delta      r    Elong.  Phase     V
2023 11 18    10 39 59.9 +51 25 59   0.1605  1.0142    94.6    76.4    24.4
...
2023 12 03    09 36 35.2 +47 16 34   0.1077  1.0369   115.6    59.0    23.0
...
2023 12 11    08 29 22.6 +40 45 22   0.08201 1.0441   134.6    42.2    22.0
...
2023 12 17    07 21 21.3 +30 12 27   0.06868 1.0471   155.5    22.9    21.0
2023 12 18    07 09 22.5 +27 50 04   0.06731 1.0474   159.4    19.3    20.9
2023 12 19    06 57 26.2 +25 18 21   0.06624 1.0476   163.3    15.6    20.7
...
2023 12 25    05 51 05.4 +08 34 33   0.06667 1.0479   164.4    14.6    20.7
...
2024 01 02    04 47 31.0 -09 21 48   0.08319 1.0452   136.4    40.4    22.0
...
2024 01 17    03 52 03.8 -23 21 44   0.1345  1.0304   106.7    66.1    23.7

A. U. Tomatic                (C) Copyright 2023 MPC           M.P.E.C. 2023-Y34





More information about the Iaude mailing list